Weather History for Denver Centennial, CO

Change the Weather History Date:

Tuesday, April 30, 2013

  Actual Average Record
Temperature  
Mean Temperature 48 °F -  
Max Temperature 60 °F 61 °F 79 °F (2008)
Min Temperature 36 °F 36 °F 30 °F (2004)
Degree Days  
Heating Degree Days 17    
Month to date heating degree days 706  
Moisture  
Dew Point 32 °F    
Average Humidity 58    
Maximum Humidity 92    
Minimum Humidity 24    
Precipitation  
Precipitation T in - - ()
Month to date precipitation 0.80  
Year to date precipitation 2.96  
Sea Level Pressure  
Sea Level Pressure 29.72 in    
Wind  
Wind Speed 10 mph (NNE)    
Max Wind Speed 29 mph    
Max Gust Speed 35 mph    
Visibility 10 miles    
Events Rain    
Averages and records for this station are not official NWS values.
T = Trace of Precipitation, MM = Missing Value Source: NWS Daily Summary

Daily Weather History Graph

Daily Weather History Graph

Search for Another Location

Airport:

Trip Planner

Search our weather history database for the weather conditions in past years. The results will help you decide how hot, cold, wet, or windy it might be!

Date:

Astronomy

Apr. 30, 2013 Rise Set
Actual Time 6:01 AM MDT 7:52 PM MDT
Civil Twilight 5:32 AM MDT 8:21 PM MDT
Nautical Twilight 4:56 AM MDT 8:57 PM MDT
Astronomical Twilight 4:19 AM MDT 9:35 PM MDT
Moon 12:17 AM MDT (4/30) 10:33 AM MDT (4/30)
Length of Visible Light 14h 49m
Length of Day
13h 51m
Waning Gibbous, 69% of the Moon is Illuminated
Apr 30
Waning Gibbous
May 2
Last Quarter
May 9
New
May 17
First Quarter
May 24
Full

Hourly Weather History & Observations

Time (MDT) Temp. Windchill Dew Point Humidity Pressure Visibility Wind Dir Wind Speed Gust Speed Precip Events Conditions
12:53 AM 57.9 °F - 23.0 °F 26% 29.51 in 10.0 mi SSW 12.7 mph - N/A   Mostly Cloudy
1:53 AM 54.0 °F - 23.0 °F 30% 29.52 in 10.0 mi SSW 8.1 mph - N/A   Mostly Cloudy
2:53 AM 53.1 °F - 23.0 °F 31% 29.51 in 10.0 mi SSW 8.1 mph - N/A   Mostly Cloudy
3:53 AM 55.9 °F - 19.9 °F 25% 29.50 in 10.0 mi South 11.5 mph - N/A   Mostly Cloudy
4:53 AM 52.0 °F - 23.0 °F 32% 29.52 in 10.0 mi ESE 8.1 mph - N/A   Mostly Cloudy
5:53 AM 54.0 °F - 23.0 °F 30% 29.55 in 10.0 mi NNE 10.4 mph 18.4 mph N/A   Mostly Cloudy
6:53 AM 42.1 °F 36.1 °F 32.0 °F 67% 29.71 in 10.0 mi North 10.4 mph - N/A   Mostly Cloudy
7:53 AM 42.1 °F 38.4 °F 33.1 °F 70% 29.74 in 10.0 mi NNW 5.8 mph - N/A   Mostly Cloudy
8:53 AM 45.0 °F 42.6 °F 33.1 °F 63% 29.74 in 10.0 mi South 4.6 mph - N/A   Mostly Cloudy
9:53 AM 48.0 °F - 35.1 °F 61% 29.71 in 10.0 mi Variable 4.6 mph - N/A   Mostly Cloudy
10:53 AM 52.0 °F - 37.0 °F 57% 29.69 in 10.0 mi North 5.8 mph - N/A   Mostly Cloudy
11:53 AM 54.0 °F - 36.0 °F 51% 29.70 in 10.0 mi ENE 10.4 mph 16.1 mph N/A   Mostly Cloudy
12:53 PM 55.9 °F - 37.0 °F 49% 29.69 in 10.0 mi East 5.8 mph 17.3 mph N/A   Mostly Cloudy
1:53 PM 59.0 °F - 37.0 °F 44% 29.65 in 10.0 mi ENE 10.4 mph 17.3 mph N/A   Mostly Cloudy
2:53 PM 57.0 °F - 37.9 °F 49% 29.68 in 10.0 mi NE 9.2 mph - N/A   Mostly Cloudy
3:53 PM 55.0 °F - 37.0 °F 51% 29.70 in 10.0 mi North 18.4 mph - N/A   Overcast
4:53 PM 54.0 °F - 36.0 °F 51% 29.73 in 10.0 mi NNE 13.8 mph 21.9 mph N/A   Mostly Cloudy
5:53 PM 52.0 °F - 35.1 °F 53% 29.72 in 10.0 mi NNE 9.2 mph - N/A   Mostly Cloudy
6:53 PM 51.1 °F - 34.0 °F 52% 29.77 in 10.0 mi North 10.4 mph - N/A   Mostly Cloudy
7:53 PM 50.0 °F - 34.0 °F 54% 29.82 in 10.0 mi North 11.5 mph - N/A   Mostly Cloudy
8:53 PM 48.9 °F - 32.0 °F 52% 29.88 in 10.0 mi North 11.5 mph - N/A   Overcast
9:53 PM 41.0 °F 31.1 °F 34.0 °F 76% 29.94 in 10.0 mi North 23.0 mph 34.5 mph N/A   Overcast
10:23 PM 39.2 °F 31.6 °F 35.6 °F 87% 30.01 in 10.0 mi North 12.7 mph 24.2 mph N/A   Overcast
10:53 PM 37.9 °F 29.6 °F 35.1 °F 89% 29.98 in 10.0 mi NNE 13.8 mph - N/A   Overcast
11:53 PM 37.0 °F 29.8 °F 36.0 °F 96% 30.00 in 9.0 mi NNE 10.4 mph - 0.00 in Rain Light Rain